www.pogodaiklimat.ru
ПОГОДА в Аэропорту Конарак
Время
(UTC), дата
21 8.12
00 9.12
03 9.12
06 9.12
09 9.12
12 9.12
15 9.12
18 9.12
21 9.12
00 10.12
03 10.12
06 10.12
09 10.12
12 10.12
15 10.12
18 10.12
21 10.12
00 11.12
03 11.12
06 11.12
09 11.12
12 11.12
15 11.12
18 11.12
21 11.12
00 12.12
03 12.12
06 12.12
09 12.12
12 12.12
15 12.12
18 12.12
21 12.12
00 13.12
03 13.12
06 13.12
09 13.12
12 13.12
15 13.12
18 13.12
21 13.12
00 14.12
03 14.12
06 14.12
09 14.12
12 14.12
15 14.12
18 14.12
21 14.12
00 15.12
03 15.12
06 15.12
09 15.12
12 15.12
15 15.12
Ветер
(напр.,м/с)
Видим. Явления Облачность Т
(С)
Тd
(С)
f
(%)
Тe
(С)
Тes
(С)
Комфортность P
(гПа)
Po
(гПа)
Тmin
(С)
Tmax
(С)
R
(мм)
R24
(мм)
S
(см)
СВ 3 10 км 8/3 900 м
[Sc Ac und]
+20.1 +16.1 78 +23 +23 комфорт 1018.4 1017.5
СВ 3 10 км 3/0
[Ac und]
+18.9 +15.7 82 +20 +20 1017.4 1016.5
СВ 3 10 км ясно 1018.5 1017.6 +18.7
СВ 3 10 км 1/0
[Cs]
+24.6 1020.1 1019.2 12.5
ЮВ 4 15 км ясно 1017.4 1016.5
Ю 2 15 км 1/1 750 м
[Sc diur, vesp]
+25.9 1016.7 1015.8
Ю 2 12 км 3/0
[Ac und]
+23.9 1017.9 1017.0 +26.8 666
штиль 0 12 км ясно +24.0 +18.8 73 +29 +29 душно 1018.1 1017.2
С 2 12 км 3/3 900 м
[Sc]
+21.4 +18.7 85 +26 +26 душно 1017.5 1016.6
С 2 12 км ясно +20.9 +19.0 89 +26 +26 душно 1016.6 1015.7
С 3 12 км 1/0
[Ci fib]
+21.1 1018.0 1017.1 +20.6 666
СЗ 2 12 км 3/0
[Ac und Ci fib]
+25.6 1018.7 1017.8
З 5 12 км 6/1 900 м
[Cu hum Ac und Cs]
+26.6 1015.8 1014.9 666 100.0
ЮЗ 4 12 км 6/3
[Cu hum Ac und Cs]
+26.4 1013.5 1012.6 100.0
З 3 10 км 4/1 900 м
[Cu hum Ac und Ci sp]
+25.0 1014.6 1013.7 +26.7
З 4 10 км 4/1 750 м
[Cu hum Ci sp]
+24.3 +21.1 82 +31 +31 очень
душно
1014.7 1013.8
СЗ 3 10 км 5/5 750 м
[Cb calv]
+23.3 +21.2 88 +31 +31 очень
душно
1013.3 1012.4
СЗ 4 10 км 4/4 750 м
[Cu med, cong]
+23.1 +20.0 83 +30 +30 очень
душно
1012.9 1012.0 102.2
СЗ 4 8000 м дымка 8/1 750 м
[Cu hum Ac As Ci sp]
+22.9 1013.4 1012.5 +22.7 666 442.2
СЗ 2 7000 м мгла 9/3 750 м
[Cu med, cong Ac As]
+24.7 +19.8 74 +30 +32 очень
душно
1014.9 1014.0
С 3 5000 м слаб. дождь 9/5 750 м
[Cu med, cong As op]
+20.7 1014.5 1013.6
З 2 6000 м мгла {дождь} 8/3 750 м
[Cu med, cong Ac As]
+23.1 +17.1 69 +28 +29 душно 1011.7 1010.8 2
З 2 7000 м мгла 5/3 750 м
[Cu med, cong Ac trans]
+21.6 1012.1 1011.2 +25.3 666 100.0
СЗ 3 10 км ясно +21.8 +18.1 80 +27 +27 душно 1011.9 1011.0 101.0
СЗ 4 12 км 1/1 750 м
[Cu hum]
+22.2 +18.2 78 +27 +27 душно 1011.4 1010.5 101.1
СЗ 4 10 км ясно +21.1 +18.2 84 +25 +25 комфорт 1020.6 1019.7
штиль 0 12 км 1/1 750 м
[Cu med, cong Ci fib]
+19.7 1012.0 1011.1 +19.3 666 101.1
штиль 0 15 км 1/0
[Ci fib]
+23.9 1013.3 1012.4 1.8
З 3 15 км 3/1 750 м
[Cu hum Ci fib]
+25.4 1010.9 1010.0 666 104.2
З 4 15 км 3/1 750 м
[Cu med, cong Ci fib]
+26.3 1010.0 1009.1
З 4 12 км 5/0
[Ci sp]
+24.3 1011.4 1010.5 +26.7 666 10.2
СЗ 3 12 км 4/0
[Ci sp]
+23.4 +16.4 65 +28 +28 душно 1012.6 1011.7
СЗ 4 12 км 3/0
[Ci sp]
+21.6 +12.2 55 +24 +24 комфорт 1012.2 1011.3 102.2
штиль 0 10 км 4/0
[Ci sp]
+19.1 +7.0 45 +20 +20 1012.5 1011.6
СВ 2 10 км 4/0
[Ci sp]
+20.5 1014.5 1013.6 +18.4 666 102.2
СВ 5 12 км 3/0
[Ci sp]
+24.3 1016.1 1015.2 0.0 0.0
В 2 12 км 3/0
[Ci sp]
+27.3 1014.8 1013.9 666 227.4
ЮВ 3 10 км 1/0
[Ci fib]
+26.2 1014.4 1013.5 0.0 107.4
штиль 0 10 км 4/0
[Ac trans Ci sp]
+23.7 1015.6 1014.7 +27.4 666 702.2
СВ 2 10 км 3/1 750 м
[Cu hum Ac trans Ci fib]
+22.4 +15.4 65 +26 +26 жарко 1016.4 1015.5
штиль 0 10 км 1/0
[Ac trans]
+21.2 +15.9 72 +25 +25 комфорт 1015.8 1014.9
С 2 10 км 4/0
[Ac und]
+21.7 +14.6 64 +25 +25 комфорт 1015.8 1014.9
штиль 0 10 км 1/0
[Ac trans]
+20.0 1017.4 1016.5 +19.9
В 2 10 км 1/0
[Ac trans]
+26.5 1019.5 1018.6 0.5
ЮЗ 3 12 км ясно 1017.4 1016.5
ЮЗ 4 12 км ясно +25.5 +1.5 80 +1 +1 1016.3 1015.4
З 4 12 км ясно 1017.5 1016.6 +27.3 666 102.2
СЗ 2 10 км 1/0
[Ci sp]
+23.7 +16.7 65 +27 +27 жарко 1017.9 1017.0 102.2
С 2 10 км ясно +21.7 +16.8 74 +26 +26 душно 1021.6 1016.7
Ю 2 10 км ясно +20.4 +15.5 73 +24 +24 комфорт 1017.3 1016.4
С 2 12 км 4/0
[Ci sp]
+20.3 -0.0 26 +21 +21 комфорт 1018.4 1017.5 +19.8 666
СВ 2 12 км 4/0
[Ci sp]
+24.6 1019.9 1019.0
ЮВ 2 12 км 5/3 750 м
[Cu hum Ci sp]
+26.0 1017.5 1016.6 666
Ю 3 12 км 5/3 750 м
[Cu med, cong Ci sp]
+25.8 1016.8 1015.9
ЮЗ 2 12 км 5/3 <50 м
[Cu hum Cs]
+23.6 1018.1 1017.2 +27.1 666
Местоположение метеостанции Аэропорт Конарак (Иран): широта 25.28 долгота 60.62 высота над уровнем моря 8 м.
В архиве по умолчанию представлена погода в Аэропорту Конарак за последнюю неделю. Архивные данные за месяц целиком и за предыдущие месяцы, начиная с января 2011 года, Вы можете получить, выбрав интересующий диапазон дат из раскрывающегося списка и нажав кнопку "Найти!".
*Определитесь, кто Вы:
Внимание! Время в таблицах - всемирное. Для получения местного времени необходимо прибавить поправку, которая равна 3.5 ч.
Смотрите также архив погоды в соседних городах и на ближайших метеорологических станциях:
Партнеры нашего сайта:      
Пояснения к столбцам:
  • Ветер - указаны скорость ветра в м/с - средняя за 10 мин, порывы в срок и между сроками (в фигурных скобках) и направление, откуда дует ветер: С - северный,
  • СВ - северо-восточный, В - восточный, ЮВ - юго-восточный, Ю - южный, ЮЗ - юго-западный, З - западный, СЗ - северо-западный.
  • Видимость - горизонтальная дальность видимости в метрах или километрах. При видимости от 1 до 10 км при отсутствии осадков обычно наблюдается дымка, при ухудшении видимости до 1 км и менее - туман. В сухую погоду видимость может ухудшаться дымом, пылью или мглою.
  • Явления - указаны атмосферные явления, наблюдавшиеся в срок или в последний час перед сроком; фигурными скобками обозначены явления, наблюдавшиеся между сроками (за 1-3 часа до срока); квадратными скобками обозначены град или гололедные отложения с указанием их диаметра в мм.
  • Облачность - указаны через наклонную черту общая и нижняя облачность в баллах и высота нижней границы облаков в метрах; квадратными скобками обозначены формы облаков: Ci - перистые, Cs - перисто-слоистые, Cc - перисто-кучевые, Ac - высококучевые, As - высокослоистые, Sc - слоисто-кучевые, Ns - слоисто-дождевые, Cu - кучевые, Cb - кучево-дождевые. Подробнее классификацию облаков см. в Атласе облаков (PDF).
  • T - Температура воздуха - температура, измеренная на высоте 2 м над землей.
  • Td - Температура точки росы - температура, при понижении до которой содержащийся в воздухе водяной пар достигнет насыщения.
  • f - Относительная влажность воздуха - влажноcть воздуха, измеренная на высоте 2 м над землей.
  • Te - Эффективная температура - температура, которую ощущает одетый по сезону человек в тени. Характеристика душности погоды. При расчете учитывается влияние влажности воздуха и скорости ветра на теплоощущения человека.
  • Tes - Эффективная температура на солнце - температура, которую ощущает человек, с поправкой на солнечный нагрев. Характеристика знойности погоды. Зависит от высоты солнца над горизонтом, облачности и скорости ветра. Ночью, в пасмурную погоду, а также при ветре 12 м/с и более поправка равна нулю.
  • P - Атмосферное давление - приведенное к уровню моря атмосферное давление.
  • Po - Атмосферное давление - измеренное на уровне метеостанции атмосферное давление.
  • Tmin - Минимальная температура - минимум температуры воздуха на высоте 2 м над землей.
  • Tmax - Максимальная температура - максимум температуры воздуха на высоте 2 м над землей.
  • R - Количество осадков - Количество выпавших осадков за период времени, мм. При наведении курсора мыши на число - период времени, за который выпало указанное количество осадков.
  • R24 - Количество осадков - Количество выпавших осадков за 24 часа, мм.
  • S - Снежный покров - Высота снежного покрова, см. При наведении курсора мыши на число - состояние снежного покрова и степень покрытия местности в баллах.